AP02N EDDF-EDDF

Flight info

Callsign AP02N
Flight time N/A
Altitude 4000
Route DF680
Aircraft C172/L-SFG/C

Departure

Time 2026-05-06 22:01
Airport Frankfurt Main Airport (EDDF)

Arrival

Time N/A
Airport Frankfurt Main Airport (EDDF)
Time Latitude Longitude Altitude Speed Heading
2026-05-06 21:24 50.04734 8.58181 356 ft 0 kts 159°
2026-05-06 21:41 50.04727 8.58181 367 ft 0 kts 211°
2026-05-06 21:41 50.04725 8.58176 366 ft 1 kts 251°
2026-05-06 21:42 50.04751 8.58164 364 ft 5 kts 24°
2026-05-06 21:42 50.04795 8.58145 366 ft 0 kts 338°
2026-05-06 21:43 50.04810 8.58122 362 ft 10 kts 287°
2026-05-06 21:43 50.04789 8.58000 362 ft 4 kts 250°
2026-05-06 21:43 50.04733 8.57951 364 ft 15 kts 184°
2026-05-06 21:44 50.04626 8.58006 367 ft 10 kts 159°
2026-05-06 21:44 50.04614 8.58013 366 ft 0 kts 158°
2026-05-06 21:44 50.04584 8.58032 369 ft 8 kts 152°
2026-05-06 21:44 50.04569 8.58132 363 ft 13 kts 68°
2026-05-06 21:45 50.04597 8.58233 364 ft 0 kts 62°
2026-05-06 21:45 50.04599 8.58244 363 ft 4 kts 81°
2026-05-06 21:45 50.04602 8.58259 366 ft 0 kts 73°
2026-05-06 21:46 50.04603 8.58269 364 ft 4 kts 75°
2026-05-06 21:46 50.04626 8.58364 363 ft 14 kts 73°
2026-05-06 21:46 50.04655 8.58480 363 ft 6 kts 68°
2026-05-06 21:47 50.04651 8.58533 363 ft 9 kts 119°
2026-05-06 21:47 50.04584 8.58592 364 ft 10 kts 157°
2026-05-06 21:47 50.04578 8.58596 365 ft 0 kts 159°
2026-05-06 21:56 50.04577 8.58596 365 ft 1 kts 159°
2026-05-06 21:57 50.04549 8.58613 368 ft 12 kts 162°
2026-05-06 21:57 50.04491 8.58603 370 ft 11 kts 235°
2026-05-06 21:57 50.04485 8.58587 368 ft 0 kts 248°
2026-05-06 21:59 50.04462 8.58487 366 ft 27 kts 250°
2026-05-06 21:59 50.04358 8.58048 363 ft 61 kts 257°
2026-05-06 21:59 50.04263 8.57598 389 ft 75 kts 251°
2026-05-06 22:00 50.03941 8.56453 560 ft 92 kts 249°
2026-05-06 22:00 50.03765 8.55863 732 ft 91 kts 249°
2026-05-06 22:00 50.03493 8.54908 838 ft 102 kts 251°
2026-05-06 22:00 50.03183 8.53846 894 ft 111 kts 244°
2026-05-06 22:01 50.02443 8.53505 870 ft 131 kts 164°
2026-05-06 22:01 50.01731 8.54327 974 ft 128 kts 129°
2026-05-06 22:02 50.01828 8.59218 690 ft 144 kts 38°
2026-05-06 22:02 50.02519 8.60077 706 ft 135 kts 35°
2026-05-06 22:02 50.03255 8.60909 801 ft 127 kts 34°
2026-05-06 22:03 50.03946 8.61804 842 ft 130 kts 44°
2026-05-06 22:03 50.04315 8.62802 753 ft 133 kts 86°
2026-05-06 22:03 50.03968 8.64177 681 ft 135 kts 124°
2026-05-06 22:03 50.03489 8.65435 640 ft 139 kts 119°
2026-05-06 22:04 50.03119 8.66514 700 ft 134 kts 117°
2026-05-06 22:04 50.02723 8.67781 845 ft 128 kts 114°
2026-05-06 22:04 50.02491 8.68613 1012 ft 120 kts 114°
2026-05-06 22:04 50.02089 8.70159 1162 ft 123 kts 109°
2026-05-06 22:05 50.01832 8.71435 1262 ft 124 kts 107°
2026-05-06 22:05 50.01565 8.72743 1324 ft 130 kts 107°
2026-05-06 22:05 50.01344 8.73872 1407 ft 129 kts 105°
2026-05-06 22:05 50.01101 8.75284 1475 ft 130 kts 103°
2026-05-06 22:06 50.01029 8.76637 1600 ft 128 kts 93°
2026-05-06 22:06 50.01000 8.77850 1624 ft 132 kts 87°
2026-05-06 22:06 50.01008 8.79255 1699 ft 134 kts 99°
2026-05-06 22:06 50.00801 8.80419 1794 ft 128 kts 109°
2026-05-06 22:07 50.00548 8.81744 1879 ft 130 kts 104°
2026-05-06 22:07 50.00346 8.82892 1951 ft 130 kts 102°
2026-05-06 22:07 50.00190 8.83795 2001 ft 131 kts 108°
2026-05-06 22:07 49.99928 8.85433 2067 ft 131 kts 94°
2026-05-06 22:08 49.99884 8.86840 2099 ft 132 kts 91°
2026-05-06 22:08 49.99883 8.87780 2172 ft 130 kts 87°
2026-05-06 22:08 49.99913 8.88959 2240 ft 130 kts 85°
2026-05-06 22:08 49.99992 8.90086 2270 ft 131 kts 76°
2026-05-06 22:09 50.00264 8.91125 2319 ft 128 kts 52°
2026-05-06 22:09 50.00432 8.91501 2340 ft 127 kts 53°
2026-05-06 22:09 50.00609 8.91921 2379 ft 127 kts 53°
2026-05-06 22:09 50.00740 8.92222 2404 ft 125 kts 51°
2026-05-06 22:10 50.00871 8.92630 2356 ft 132 kts 73°